Showing default

COSMOS 2593, 65269

Orbit data source: Space-Track

COSMOS 2593, 65269 is a payload satellite owned by MO RF (CIS) in SSO that was launched on Thu, 21 Aug 2025 UTC via an ANGARA-1.2 launch vehicle from the Plesetsk Missile And Space Complex (PKMTR). Payload-class satellites include a variety of spacecraft equipped with specific instruments for various scientific and technological missions. These include communications satellites like Starlink; space stations such as the ISS; scientific satellites like the Hubble; Earth observation satellites from companies like Planet Labs, Umbra, and HawkEye 360; GPS; miniature CubeSats for education and research; and military/defense satellites.

Not visible in the next 10 days
Identifier
65269, 2025-182C
Orbit
SSO
Country
Flag of CISCIS
Related business
Manufacturer
VNIIEMI?
Mission
Operational Defense Imaging
Bus & Motor
OO-MKA, Unknown motor
Mass
520 kg wet, ~500 kg dry
Launch date (UTC)
2025-08-21 (9 months ago)
Launch vehicle
ANGARA-1.2
Launch site
Plesetsk Missile And Space Complex (PKMTR)
Object type
Payload
Rocket body
Debris
Shape & HBR
Cyl + 2 Pan, 1.1 m
Radar Cross Section
3.727 m², Large (>1 m²)

Expand to show TLE details & history
Last TLE update: 12 hours ago

TLE from 12 hours ago
0 COSMOS 2593
1 65269U 25182C   26133.09766968  .00070131  37265-5  17049-3 0  9996
2 65269  96.5885  64.9312 0002031   5.1594 354.9705 15.96379026 42092
Epoch: 2026-05-13T02:20Z
TLE epoch observation values (Epoch: 2026-05-13T02:20:38.660Z)
Latitude
-0.00002°
Longitude
158.90754°
Altitude
286.342 km
Speed
7.736 km/s
True Right ascension
04h 19m 43s
True Declination
0° 00' 00"
Sunlit
Object was in daylight at epoch
Visualization orbit readout
Latitude
Unknown
Longitude
Unknown
Altitude
Unknown
Speed
Unknown
Apparent Right ascension
Unknown
Apparent Declination
Unknown
Sunlit
N/A
Visualization observer readout
Local Sidereal Time
22:32:31
Azimuth
Unknown
Elevation
Unknown
Doppler factor
Unknown
Orbital elements
Apogee altitude
282.658 km
Perigee altitude
279.953 km
Semi-major axis
6,659.442 km
Eccentricity
0.0002
Inclination
96.5885°
RAAN
64.9312°
Arg. of periapsis
5.1594°
True anomaly
354.96846°
Mean anomaly
354.9705°
Eccentric anomaly
354.96948°
Mean motion
3.9938 °/min
Orbital period
90.14 mins
BSTAR
0.00017049
Loading maneuver chart data...
Computing Atmospheric mass density...
Loading historical data...
Loading historical data...
Loading historical data...
Loading historical data...
Loading historical data...
Loading historical data...
Loading historical data...
Other satellites on launch #182 in the year 2025 (2025-08-21 UTC)

Documentation

Showing up to 5 results
|